TimeEDT,TemperatureF,Dew PointF,Humidity,Sea Level PressureIn,VisibilityMPH,Wind Direction,Wind SpeedMPH,Gust SpeedMPH,PrecipitationIn,Events,Conditions,WindDirDegrees,DateUTC
12:15 AM,42.8,41.0,93,30.00,0.5,Calm,Calm,-,N/A,,Unknown,0,2013-09-25 04:15:00
12:35 AM,41.0,39.2,93,30.00,0.8,Calm,Calm,-,N/A,,Unknown,0,2013-09-25 04:35:00
12:55 AM,42.8,42.8,100,30.00,5.0,Calm,Calm,-,N/A,,Clear,0,2013-09-25 04:55:00
1:15 AM,42.8,41.0,93,29.99,1.5,Calm,Calm,-,N/A,,Clear,0,2013-09-25 05:15:00
1:35 AM,39.2,39.2,100,29.99,3.0,Calm,Calm,-,N/A,,Clear,0,2013-09-25 05:35:00
1:55 AM,42.8,41.0,93,29.98,2.0,Calm,Calm,-,N/A,,Clear,0,2013-09-25 05:55:00
2:15 AM,41.0,39.2,93,29.98,2.0,Calm,Calm,-,N/A,,Clear,0,2013-09-25 06:15:00
2:35 AM,42.8,42.8,100,29.98,5.0,Calm,Calm,-,N/A,,Clear,0,2013-09-25 06:35:00
2:55 AM,42.8,41.0,93,29.97,1.8,Calm,Calm,-,N/A,,Clear,0,2013-09-25 06:55:00
3:15 AM,41.0,39.2,93,29.97,3.0,Calm,Calm,-,N/A,,Clear,0,2013-09-25 07:15:00
3:35 AM,41.0,39.2,93,29.97,1.0,Calm,Calm,-,N/A,,Clear,0,2013-09-25 07:35:00
3:55 AM,42.8,41.0,93,29.96,1.8,Calm,Calm,-,N/A,,Clear,0,2013-09-25 07:55:00
4:15 AM,41.0,41.0,100,29.96,3.0,Calm,Calm,-,N/A,,Clear,0,2013-09-25 08:15:00
4:35 AM,41.0,39.2,93,29.95,1.2,Calm,Calm,-,N/A,,Clear,0,2013-09-25 08:35:00
4:55 AM,42.8,41.0,93,29.95,5.0,Calm,Calm,-,N/A,,Clear,0,2013-09-25 08:55:00
5:15 AM,41.0,39.2,93,29.94,7.0,Calm,Calm,-,N/A,,Clear,0,2013-09-25 09:15:00
5:35 AM,42.8,41.0,93,29.94,8.0,Calm,Calm,-,N/A,,Clear,0,2013-09-25 09:35:00
5:55 AM,42.8,41.0,93,29.95,8.0,Calm,Calm,-,N/A,,Clear,0,2013-09-25 09:55:00
6:15 AM,42.8,41.0,93,29.95,10.0,Calm,Calm,-,N/A,,Clear,0,2013-09-25 10:15:00
6:35 AM,42.8,39.2,87,29.95,8.0,Calm,Calm,-,N/A,,Clear,0,2013-09-25 10:35:00
6:55 AM,41.0,39.2,93,29.94,8.0,Calm,Calm,-,N/A,,Clear,0,2013-09-25 10:55:00
7:15 AM,41.0,39.2,93,29.95,7.0,Calm,Calm,-,N/A,,Clear,0,2013-09-25 11:15:00
7:35 AM,42.8,42.8,100,29.96,6.0,Calm,Calm,-,N/A,,Clear,0,2013-09-25 11:35:00
7:55 AM,42.8,41.0,93,29.96,8.0,Calm,Calm,-,N/A,,Clear,0,2013-09-25 11:55:00
8:15 AM,44.6,42.8,93,29.96,8.0,Calm,Calm,-,N/A,,Clear,0,2013-09-25 12:15:00
8:35 AM,44.6,44.6,100,29.96,7.0,Calm,Calm,-,N/A,,Clear,0,2013-09-25 12:35:00
8:55 AM,46.4,46.4,100,29.97,7.0,Calm,Calm,-,N/A,,Clear,0,2013-09-25 12:55:00
9:15 AM,48.2,46.4,93,29.97,10.0,Calm,Calm,-,N/A,,Clear,0,2013-09-25 13:15:00
9:35 AM,48.2,46.4,93,29.98,10.0,Calm,Calm,-,N/A,,Clear,0,2013-09-25 13:35:00
9:55 AM,51.8,48.2,88,29.97,10.0,Calm,Calm,-,N/A,,Clear,0,2013-09-25 13:55:00
10:15 AM,55.4,48.2,77,29.97,10.0,Calm,Calm,-,N/A,,Clear,0,2013-09-25 14:15:00
10:35 AM,57.2,50.0,77,29.97,10.0,Calm,Calm,-,N/A,,Clear,0,2013-09-25 14:35:00
10:55 AM,60.8,51.8,72,29.97,10.0,NNE,4.6,-,N/A,,Clear,30,2013-09-25 14:55:00
11:15 AM,62.6,50.0,63,29.97,10.0,East,4.6,-,N/A,,Clear,80,2013-09-25 15:15:00
11:35 AM,64.4,48.2,56,29.97,10.0,ENE,4.6,-,N/A,,Clear,70,2013-09-25 15:35:00
11:55 AM,64.4,48.2,56,29.97,10.0,East,3.5,-,N/A,,Clear,80,2013-09-25 15:55:00
12:15 PM,66.2,48.2,52,29.97,10.0,East,5.8,-,N/A,,Clear,90,2013-09-25 16:15:00
12:35 PM,66.2,50.0,56,29.96,10.0,SE,4.6,-,N/A,,Clear,140,2013-09-25 16:35:00
12:55 PM,66.2,51.8,60,29.96,10.0,Calm,Calm,-,N/A,,Clear,0,2013-09-25 16:55:00
1:15 PM,68.0,51.8,56,29.96,10.0,Calm,Calm,-,N/A,,Clear,0,2013-09-25 17:15:00
1:35 PM,69.8,51.8,53,29.95,10.0,NE,4.6,-,N/A,,Clear,40,2013-09-25 17:35:00
1:55 PM,71.6,53.6,53,29.94,10.0,ENE,3.5,-,N/A,,Clear,70,2013-09-25 17:55:00
2:15 PM,69.8,51.8,53,29.94,10.0,North,4.6,-,N/A,,Clear,350,2013-09-25 18:15:00
2:35 PM,71.6,53.6,53,29.94,10.0,Calm,Calm,-,N/A,,Clear,0,2013-09-25 18:35:00
2:55 PM,73.4,53.6,50,29.93,10.0,NW,3.5,-,N/A,,Clear,320,2013-09-25 18:55:00
3:15 PM,73.4,55.4,53,29.92,10.0,NNW,4.6,-,N/A,,Clear,330,2013-09-25 19:15:00
3:35 PM,73.4,53.6,50,29.92,10.0,North,4.6,-,N/A,,Clear,350,2013-09-25 19:35:00
3:55 PM,73.4,55.4,53,29.91,10.0,NE,6.9,-,N/A,,Clear,50,2013-09-25 19:55:00
4:15 PM,71.6,55.4,57,29.91,10.0,Calm,Calm,-,N/A,,Partly Cloudy,0,2013-09-25 20:15:00
4:35 PM,71.6,53.6,53,29.91,10.0,Calm,Calm,-,N/A,,Partly Cloudy,0,2013-09-25 20:35:00
4:55 PM,71.6,55.4,57,29.91,10.0,SE,3.5,-,N/A,,Partly Cloudy,130,2013-09-25 20:55:00
5:15 PM,71.6,55.4,57,29.91,10.0,East,3.5,-,N/A,,Partly Cloudy,100,2013-09-25 21:15:00
5:35 PM,71.6,55.4,57,29.91,10.0,Calm,Calm,-,N/A,,Clear,0,2013-09-25 21:35:00
5:55 PM,68.0,60.8,78,29.91,10.0,Calm,Calm,-,N/A,,Clear,0,2013-09-25 21:55:00
6:15 PM,64.4,60.8,88,29.92,10.0,Calm,Calm,-,N/A,,Clear,0,2013-09-25 22:15:00
6:35 PM,64.4,59.0,83,29.92,10.0,Calm,Calm,-,N/A,,Clear,0,2013-09-25 22:35:00
6:55 PM,62.6,59.0,88,29.92,10.0,Calm,Calm,-,N/A,,Clear,0,2013-09-25 22:55:00
7:15 PM,62.6,57.2,82,29.92,10.0,NNW,4.6,-,N/A,,Clear,340,2013-09-25 23:15:00
7:35 PM,60.8,57.2,88,29.93,10.0,Calm,Calm,-,N/A,,Clear,0,2013-09-25 23:35:00
7:55 PM,59.0,55.4,88,29.93,10.0,Calm,Calm,-,N/A,,Clear,0,2013-09-25 23:55:00
8:15 PM,57.2,55.4,94,29.93,10.0,Calm,Calm,-,N/A,,Clear,0,2013-09-26 00:15:00
8:35 PM,57.2,53.6,88,29.93,10.0,Calm,Calm,-,N/A,,Clear,0,2013-09-26 00:35:00
8:55 PM,55.4,55.4,100,29.94,10.0,Calm,Calm,-,N/A,,Clear,0,2013-09-26 00:55:00
9:15 PM,55.4,53.6,94,29.94,9.0,Calm,Calm,-,N/A,,Clear,0,2013-09-26 01:15:00
9:35 PM,55.4,53.6,94,29.94,10.0,Calm,Calm,-,N/A,,Clear,0,2013-09-26 01:35:00
9:55 PM,53.6,51.8,94,29.95,9.0,Calm,Calm,-,N/A,,Clear,0,2013-09-26 01:55:00
10:15 PM,51.8,51.8,100,29.95,10.0,Calm,Calm,-,N/A,,Clear,0,2013-09-26 02:15:00
10:35 PM,53.6,51.8,94,29.95,10.0,Calm,Calm,-,N/A,,Clear,0,2013-09-26 02:35:00
10:55 PM,51.8,51.8,100,29.95,10.0,Calm,Calm,-,N/A,,Clear,0,2013-09-26 02:55:00
11:15 PM,50.0,48.2,94,29.95,4.0,Calm,Calm,-,N/A,,Clear,0,2013-09-26 03:15:00
11:35 PM,50.0,48.2,94,29.96,8.0,Calm,Calm,-,N/A,,Clear,0,2013-09-26 03:35:00
11:55 PM,50.0,48.2,94,29.96,2.5,Calm,Calm,-,N/A,,Clear,0,2013-09-26 03:55:00